Weather History for FAMM - October, 2012

Change the Weather History Date:

Wednesday, October 3, 2012

  Actual Average Record
Temperature  
Mean Temperature 75 °F -  
Max Temperature 92 °F - - ()
Min Temperature 58 °F - - ()
Cooling Degree Days 10    
Growing Degree Days 25 (Base 50)    
Moisture  
Dew Point 16 °F    
Average Humidity 10    
Maximum Humidity 22    
Minimum Humidity 4    
Precipitation  
Precipitation 0.00 in - - ()
Sea Level Pressure  
Sea Level Pressure 30.12 in    
Wind  
Wind Speed 8 mph ()    
Max Wind Speed 20 mph    
Max Gust Speed -    
Visibility 19.0 miles    
Events      
T = Trace of Precipitation, MM = Missing Value Source: Averaged Metar Reports

Daily Weather History Graph

Daily Weather History Graph

Search for Another Location

Airport or City:

Trip Planner

Search our weather history database for the weather conditions in past years. The results will help you decide how hot, cold, wet, or windy it might be!

Date:

Astronomy

Oct. 03, 2012 Rise Set
Actual Time 5:55 AM SAST 6:18 PM SAST
Civil Twilight 5:32 AM SAST 6:41 PM SAST
Nautical Twilight 5:05 AM SAST 7:08 PM SAST
Astronomical Twilight 4:37 AM SAST 7:36 PM SAST
Moon 9:21 PM SAST (10/3) 7:42 AM SAST (10/3)
Length of Visible Light 13h 09m
Length of Day
12h 23m
Waning Gibbous, 90% of the Moon is Illuminated
Oct 3
Waning Gibbous
Oct 8
Last Quarter
Oct 15
New
Oct 22
First Quarter
Oct 29
Full

Hourly Weather History & Observations

Time (SAST) Temp. Dew Point Humidity Pressure Visibility Wind Dir Wind Speed Gust Speed Precip Events Conditions
12:00 AM 64.4 °F 15.8 °F 15% 30.18 in - NNE 8.1 mph - N/A   Unknown
1:00 AM 62.6 °F 17.6 °F 18% 30.18 in - NNE 8.1 mph - N/A   Unknown
2:00 AM 63 °F 15 °F 7%  in - NNE 6.9 mph - -  
2:00 AM 62.6 °F 15.8 °F 16% 30.15 in - NNE 6.9 mph - N/A   Unknown
3:00 AM 62.6 °F 15.8 °F 16% 30.15 in - NNE 8.1 mph - N/A   Unknown
4:00 AM 59.0 °F 15.8 °F 19% 30.15 in - NNE 8.1 mph - N/A   Unknown
5:00 AM 59 °F 17 °F 10%  in 19 mi NE 9.2 mph - -  
5:00 AM 59.0 °F 17.6 °F 20% 30.15 in - NE 8.1 mph - N/A   Unknown
6:00 AM 59.0 °F 19.4 °F 22% 30.15 in - NNE 9.2 mph - N/A   Clear
7:00 AM 64.4 °F 17.6 °F 16% 30.15 in - NNE 12.7 mph - N/A   Clear
8:00 AM 74 °F 22 °F 7%  in 19 mi NNE 18.4 mph - -  
8:00 AM 73.4 °F 23.0 °F 15% 30.18 in - NNE 17.3 mph - N/A   Clear
9:00 AM 77.0 °F 24.8 °F 14% 30.18 in - North 19.6 mph - N/A   Clear
9:31 AM 80.6 °F 24.8 °F 13% 30.18 in - NNE 18.4 mph - N/A   Clear
10:00 AM 80.6 °F 23.0 °F 12% 30.18 in - North 13.8 mph - N/A   Clear
11:00 AM 86 °F 18 °F 4%  in 19 mi North 11.5 mph - -  
11:00 AM 84.2 °F 19.4 °F 9% 30.15 in - North 11.5 mph - N/A   Clear
12:00 PM 87.8 °F 10.4 °F 6% 30.15 in - North 8.1 mph - N/A   Clear
1:00 PM 89.6 °F 12.2 °F 6% 30.12 in - NW 5.8 mph - N/A   Clear
2:00 PM 91 °F 11 °F 4%  in 19 mi WSW 5.8 mph - -  
2:00 PM 89.6 °F 12.2 °F 6% 30.09 in - WSW 4.6 mph - N/A   Clear
3:00 PM 91.4 °F 12.2 °F 5% 30.06 in - SW 3.5 mph - N/A   Clear
4:00 PM 91.4 °F 8.6 °F 5% 30.04 in - WSW 3.5 mph - N/A   Clear
5:00 PM 92 °F 7 °F 4%  in 19 mi West 6.9 mph - -  
5:00 PM 91.4 °F 8.6 °F 5% 30.04 in - West 5.8 mph - N/A   Clear
6:00 PM 87.8 °F 10.4 °F 6% 30.04 in - WSW 5.8 mph - N/A   Clear
7:00 PM 82.4 °F 14.0 °F 8% 30.04 in - West 3.5 mph - N/A   Clear
8:00 PM 81 °F 15 °F 4%  in 19 mi WNW 4.6 mph - -  
8:00 PM 80.6 °F 15.8 °F 9% 30.04 in - WNW 3.5 mph - N/A   Clear
9:00 PM 80.6 °F 12.2 °F 8% 30.06 in - NW 2.3 mph - N/A   Unknown
10:00 PM 73.4 °F 17.6 °F 12% 30.06 in - NNE 4.6 mph - N/A   Unknown
11:00 PM 72 °F 17 °F 5%  in - NNE 5.8 mph - -  
11:00 PM 71.6 °F 17.6 °F 13% 30.06 in - NNE 4.6 mph - N/A   Unknown